{"data":{"norad_id":48971,"epoch":"2026-09-20T03:28:38.629056Z","epoch_age_seconds":52557,"freshness":"FRESH","line1":"1 48971U 21060E   26263.14489154  .00000096  00000+0  21671-3 0  9997","line2":"2 48971  87.9155 209.9233 0001877  75.3395 284.7944 13.16593614252083","mean_motion":13.16593614,"eccentricity":0.0001877,"inclination_deg":87.9155,"raan_deg":209.9233,"arg_perigee_deg":75.3395,"mean_anomaly_deg":284.7944,"bstar":0.00021671,"rev_number":25208,"period_min":109.37315696262,"perigee_km":1196.3371380071,"apogee_km":1199.1811294156,"semimajor_km":7575.8961337114,"source":"CELESTRAK","updated_at":"2026-09-20T09:00:44.623707Z"}}